WetterOnline ( http://www.wetteronline.de )

Wetter aktuell Oeverdiek, Neuhof, Timmendorfer Strand

Aktuelles Wetter: Dörnick (28m)

6-stündlich | Neueste Meldungen
Ortszeit Temperatur Wetter
Do, 16.08. 2:00 16.2° C wolkig
Mi, 15.08. 20:00 21.2° C bedeckt
Mi, 15.08. 14:00 21.4° C bewölkt
Mi, 15.08. 8:00 16.6° C bewölkt
Mi, 15.08. 2:00 16.9° C bewölkt
Di, 14.08. 20:00 20.6° C wolkig
Di, 14.08. 14:00 19.9° C Regen
Di, 14.08. 8:00 17.1° C bedeckt
Ortszeit Temperatur Wetter
Do, 16.08. 7:30 17.2° C fast wolkenlos
Do, 16.08. 7:20 17.2° C fast wolkenlos
Do, 16.08. 7:10 17.1° C leicht bewölkt
Do, 16.08. 7:00 16.4° C wolkig
Do, 16.08. 6:50 16.4° C bedeckt
Do, 16.08. 6:40 16.4° C fast wolkenlos
Do, 16.08. 6:30 15.6° C wolkenlos
Do, 16.08. 6:00 15.1° C wolkenlos
Do, 16.08. 5:30 15.4° C wolkenlos
Do, 16.08. 5:00 15.4° C wolkenlos
Do, 16.08. 4:30 15.5° C wolkenlos
Ortszeit Relative Feuchte Sichtweite
Do, 16.08. 2:00 93% 7 km
Mi, 15.08. 20:00 75% 16 km
Mi, 15.08. 14:00 67% 21 km
Mi, 15.08. 8:00 89% 22 km
Mi, 15.08. 2:00 90% 40 km
Di, 14.08. 20:00 69% 24 km
Di, 14.08. 14:00 81% 18 km
Di, 14.08. 8:00 93% 10 km
Ortszeit Relative Feuchte Sichtweite
Do, 16.08. 7:30 87% 8 km
Do, 16.08. 7:20 87% -
Do, 16.08. 7:10 87% -
Do, 16.08. 7:00 91% 7 km
Do, 16.08. 6:50 91% -
Do, 16.08. 6:40 90% -
Do, 16.08. 6:30 93% 8 km
Do, 16.08. 6:00 94% 7 km
Do, 16.08. 5:30 93% 7 km
Do, 16.08. 5:00 93% 7 km
Do, 16.08. 4:30 95% 5.0 km
Ortszeit Niederschlagsmenge Niederschlagsart
Do, 16.08. 2:00 0.0 l/m2 in 6 Std. -
Mi, 15.08. 20:00 0.3 l/m2 in 12 Std. Regen
Mi, 15.08. 14:00 0.1 l/m2 in 6 Std. Regen
Mi, 15.08. 8:00 0.4 l/m2 in 12 Std. -
Mi, 15.08. 2:00 0.4 l/m2 in 6 Std. Regen
Di, 14.08. 20:00 0.7 l/m2 in 12 Std. Regen
Di, 14.08. 14:00 0.7 l/m2 in 6 Std. Regen
Di, 14.08. 8:00 1 l/m2 in 12 Std. Regen
Ortszeit Niederschlagsmenge Niederschlagsart
Do, 16.08. 7:30 0.0 l/m2 in 1 Std. -
Do, 16.08. 7:20 keine Meldung -
Do, 16.08. 7:10 keine Meldung -
Do, 16.08. 7:00 0.0 l/m2 in 1 Std. -
Do, 16.08. 6:50 keine Meldung -
Do, 16.08. 6:40 keine Meldung -
Do, 16.08. 6:30 0.0 l/m2 in 1 Std. -
Do, 16.08. 6:00 0.0 l/m2 in 1 Std. -
Do, 16.08. 5:30 0.0 l/m2 in 1 Std. -
Do, 16.08. 5:00 0.0 l/m2 in 1 Std. -
Do, 16.08. 4:30 0.0 l/m2 in 1 Std. -
Ortszeit Stärke Spitze Richtung
km/h Bft. km/h Grad Sektor
Do, 16.08. 2:00 4 1 11 190° S
Mi, 15.08. 20:00 7 2 32 210° SW
Mi, 15.08. 14:00 15 3 28 220° SW
Mi, 15.08. 8:00 11 2 22 240° SW
Mi, 15.08. 2:00 14 3 29 270° W
Di, 14.08. 20:00 14 3 43 270° W
Di, 14.08. 14:00 17 3 37 270° W
Di, 14.08. 8:00 14 3 25 220° SW
Ortszeit Stärke Spitze Richtung
km/h Bft. km/h Grad Sektor
Do, 16.08. 7:30 7 2 13 160° S
Do, 16.08. 7:20 7 2 - 160° S
Do, 16.08. 7:10 7 2 - 160° S
Do, 16.08. 7:00 6 1 13 160° S
Do, 16.08. 6:50 6 1 - 160° S
Do, 16.08. 6:40 9 2 - 170° S
Do, 16.08. 6:30 7 2 11 170° S
Do, 16.08. 6:00 4 1 7 170° S
Do, 16.08. 5:30 4 1 7 130° SO
Do, 16.08. 5:00 4 1 7 160° S
Do, 16.08. 4:30 2 1 7 110° O
Ortszeit Untergrenze Bedeckung Gattung
total tief tief mittel hoch
Do, 16.08. 2:00 10500 m 8/8 0/8 - - -
Mi, 15.08. 20:00 1440 m 8/8 8/8 - - -
Mi, 15.08. 14:00 900 m 7/8 7/8 - - -
Mi, 15.08. 8:00 1350 m 7/8 7/8 - - -
Mi, 15.08. 2:00 510 m 8/8 5/8 - - -
Di, 14.08. 20:00 930 m 5/8 4/8 - - -
Di, 14.08. 14:00 810 m 8/8 8/8 - - -
Di, 14.08. 8:00 210 m 8/8 8/8 - - -
Ortszeit Bedeckungsgrad in Achtel und Wolkenuntergrenze
Do, 16.08. 7:30 1(1500m)
Do, 16.08. 7:20 1(1500m)
Do, 16.08. 7:10 2(1500m)
Do, 16.08. 7:00 2(1500m)
Do, 16.08. 6:50 9 9 9
Do, 16.08. 6:40 1(1500m)
Do, 16.08. 6:30 1(1500m)
Do, 16.08. 6:00 keine Wolken
Do, 16.08. 5:30 keine Wolken
Do, 16.08. 5:00 keine Wolken
Do, 16.08. 4:30 keine Wolken
Ortszeit Luftdruck NN (hPa) Tendenz (hPa in 3 Std.)
Do, 16.08. 2:00 1018 - 0,2
Mi, 15.08. 20:00 1017 + 0,4
Mi, 15.08. 14:00 1017 + 0,1
Mi, 15.08. 8:00 1016 + 0,8
Mi, 15.08. 2:00 1014 + 1,7
Di, 14.08. 20:00 1011 + 1,6
Di, 14.08. 14:00 1008 + 0,8
Di, 14.08. 8:00 1006 + 0,8
Ortszeit Luftdruck NN (hPa) Tendenz (hPa in 3 Std.)
Do, 16.08. 7:30 1017 - 0,5
Do, 16.08. 7:20 1017 keine Meldung
Do, 16.08. 7:10 1017 keine Meldung
Do, 16.08. 7:00 1017 - 0,6
Do, 16.08. 6:50 1017 keine Meldung
Do, 16.08. 6:40 1017 keine Meldung
Do, 16.08. 6:30 1017 - 0,4
Do, 16.08. 6:00 1017 - 0,4
Do, 16.08. 5:30 1017 - 0,3
Do, 16.08. 5:00 1017 - 0,3
Do, 16.08. 4:30 1017 - 0,2
Ortszeit Schneehöhe (cm)
Do, 16.08. 2:00 -
Mi, 15.08. 20:00 -
Mi, 15.08. 14:00 -
Mi, 15.08. 8:00 -
Mi, 15.08. 2:00 -
Di, 14.08. 20:00 -
Di, 14.08. 14:00 -
Di, 14.08. 8:00 -
Ortszeit Schneehöhe (cm)
Do, 16.08. 7:30 -
Do, 16.08. 7:20 -
Do, 16.08. 7:10 -
Do, 16.08. 7:00 -
Do, 16.08. 6:50 -
Do, 16.08. 6:40 -
Do, 16.08. 6:30 -
Do, 16.08. 6:00 -
Do, 16.08. 5:30 -
Do, 16.08. 5:00 -
Do, 16.08. 4:30 -
Link zu dieser Seite / Seite empfehlen

Das Wetter in ...